Globalstar M076

operational
NORAD ID: 37190 Int'l Des: 2010-054 Owner: GLOB Country: US Constellation: globalstar
LEOCIRCULAR

Globalstar M076について

説明を読み込み中...

リアルタイム位置

3D地球を読み込み中...

次回通過

高度履歴

Altitude vs Time

uPlot chart will show altitude changes over time

軌道要素

1 37190U 10054C 26061.04344544 -.00000093 00000-0 61870-4 0 9992
2 37190 52.0029 74.3068 0000538 137.7199 239.9425 12.62270374709342
Epoch: Mar 2, 2026 • Age: 31 hours

現在のステータス

高度 1421.3 km
速度 7.15 km/s
衛星直下点 -26.81°S, 13.8°E
打ち上げ日 Oct 19, 2010
運用期間 15.3 years
タイプ communications

技術仕様

分類 Payload
質量 715.00 kg
乾燥質量 500.00 kg
総質量 715.00 kg
長さ 4.00 m
直径 2.00 m
スパン 12.00 m
形状 Trap Cyl + 2 Pan
製造者 THALR
バスタイプ Prisma
フェーズステータス In Orbit
所有者/国 GLOB/US

大規模コンステレーション

Loading constellations...